Overview Statistics Trail Chart Weather Telemetry Raw packets
 

This is the latest recevied weather packets stored in our database for station/object N1SU-13. If no packets are shown the sender has not sent any weather packets the latest 10 day(s).

<< 7 8 9 10 11 12 13 >>
Time Temp. Humidity Pressure Rain* Wind** Luminosity Snow
1788564144 17.78° C 66% 1012.7 hPa 0 mm - - -
1788563981 17.78° C 66% 1012.7 hPa 0 mm - - -
1788563812 17.78° C 64% 1012.5 hPa 0 mm - - -
1788563235 17.78° C 64% 1012.2 hPa 0 mm - - -
1788562622 17.78° C 62% 1012.1 hPa 0 mm - - -
1788561997 18.33° C 61% 1012 hPa 0 mm - - -
1788561361 18.33° C 61% 1012 hPa 0 mm - - -
1788560772 18.33° C 60% 1011.8 hPa 0 mm - - -
1788560083 18.33° C 60% 1011.7 hPa 0 mm - - -
1788559417 18.89° C 59% 1011.6 hPa 0 mm - - -
1788559400 18.89° C 59% 1011.6 hPa 0 mm - - -
1788558721 18.89° C 57% 1011.5 hPa 0 mm - - -
1788558070 18.89° C 57% 1011.5 hPa 0 mm - - -
1788557392 18.89° C 56% 1011.4 hPa 0 mm - - -
1788556721 18.33° C 59% 1011.4 hPa 0 mm - - -
1788556036 18.33° C 59% 1011.5 hPa 0 mm - - -
1788555468 18.33° C 60% 1011.6 hPa 0 mm - - -
1788554798 17.78° C 61% 1011.6 hPa 0 mm - - -
1788554101 17.78° C 63% 1011.6 hPa 0 mm - - -
1788553440 17.22° C 65% 1011.7 hPa 0 mm - - -
1788552805 16.67° C 66% 1011.8 hPa 0 mm - - -
1788552110 16.67° C 68% 1011.9 hPa 0 mm - - -
1788551497 16.67° C 67% 1011.8 hPa 0 mm - - -
1788550853 16.67° C 68% 1012 hPa 0 mm - - -
1788550174 16.11° C 70% 1012.1 hPa 0 mm - - -

* Rain latest hour (hover to see other rain measurements)
** Current wind speed in m/s (hover to see current wind gust speed)